Time,TemperatureF,DewpointF,PressureIn,WindDirection,WindDirectionDegrees,WindSpeedMPH,WindSpeedGustMPH,Humidity,HourlyPrecipIn,Conditions,Clouds,dailyrainin,SoftwareType,DateUTC
2013-03-03 00:00:00,26.7,14.7,29.98,South,182,3.0,12.0,60,0.00,,,0.05,VWS V14.01,2013-03-03 05:00:00,
2013-03-03 00:01:00,26.7,14.7,29.98,WSW,242,1.0,12.0,60,0.00,,,0.05,VWS V14.01,2013-03-03 05:01:00,
2013-03-03 00:06:00,26.7,15.1,29.97,SW,227,0.0,12.0,61,0.00,,,0.00,VWS V14.01,2013-03-03 05:06:00,
2013-03-03 00:08:00,26.7,15.4,29.97,SW,227,0.0,12.0,62,0.00,,,0.00,VWS V14.01,2013-03-03 05:08:00,
2013-03-03 00:13:00,26.7,14.3,29.97,SW,224,1.0,12.0,59,0.00,,,0.00,VWS V14.01,2013-03-03 05:13:00,
2013-03-03 00:18:00,26.6,14.2,29.97,SW,225,2.0,12.0,59,0.00,,,0.00,VWS V14.01,2013-03-03 05:18:00,
2013-03-03 00:23:00,26.6,15.0,29.97,SSE,153,0.0,12.0,61,0.00,,,0.00,VWS V14.01,2013-03-03 05:23:00,
2013-03-03 00:28:00,26.6,14.6,29.97,SSE,153,2.0,12.0,60,0.00,,,0.00,VWS V14.01,2013-03-03 05:28:00,
2013-03-03 00:33:00,26.6,14.2,29.97,NW,307,0.0,12.0,59,0.00,,,0.00,VWS V14.01,2013-03-03 05:33:00,
2013-03-03 00:38:00,26.6,14.2,29.97,NE,55,0.0,12.0,59,0.00,,,0.00,VWS V14.01,2013-03-03 05:38:00,
2013-03-03 00:43:00,26.6,14.6,29.97,North,355,0.0,12.0,60,0.00,,,0.00,VWS V14.01,2013-03-03 05:43:00,
2013-03-03 00:48:00,26.6,14.2,29.97,NW,306,2.0,12.0,59,0.00,,,0.00,VWS V14.01,2013-03-03 05:48:00,
2013-03-03 00:53:00,26.6,14.2,29.97,East,90,0.0,12.0,59,0.00,,,0.00,VWS V14.01,2013-03-03 05:53:00,
2013-03-03 00:58:00,26.7,14.7,29.97,East,90,0.0,12.0,60,0.00,,,0.00,VWS V14.01,2013-03-03 05:58:00,
2013-03-03 01:03:00,26.7,14.7,29.98,SW,232,2.0,12.0,60,0.00,,,0.00,VWS V14.01,2013-03-03 06:03:00,
2013-03-03 01:08:00,26.7,14.7,29.98,SW,230,1.0,12.0,60,0.00,,,0.00,VWS V14.01,2013-03-03 06:08:00,
2013-03-03 01:13:00,26.7,14.3,29.98,SW,230,0.0,12.0,59,0.00,,,0.00,VWS V14.01,2013-03-03 06:13:00,
2013-03-03 01:19:00,26.6,14.6,29.97,SSE,167,3.0,12.0,60,0.00,,,0.00,VWS V14.01,2013-03-03 06:19:00,
2013-03-03 01:24:00,26.6,14.6,29.97,SW,217,4.0,12.0,60,0.00,,,0.00,VWS V14.01,2013-03-03 06:24:00,
2013-03-03 01:29:00,26.4,14.0,29.97,West,259,0.0,12.0,59,0.00,,,0.00,VWS V14.01,2013-03-03 06:29:00,
2013-03-03 01:34:00,26.3,15.1,29.98,WSW,251,0.0,12.0,62,0.00,,,0.00,VWS V14.01,2013-03-03 06:34:00,
2013-03-03 01:39:00,26.1,14.9,29.98,SSE,168,1.0,12.0,62,0.00,,,0.00,VWS V14.01,2013-03-03 06:39:00,
2013-03-03 01:44:00,26.0,14.8,29.98,SW,219,1.0,12.0,62,0.00,,,0.00,VWS V14.01,2013-03-03 06:44:00,
2013-03-03 01:49:00,26.0,15.9,29.98,East,101,1.0,12.0,65,0.00,,,0.00,VWS V14.01,2013-03-03 06:49:00,
2013-03-03 01:54:00,26.0,15.5,29.98,ESE,103,2.0,12.0,64,0.00,,,0.00,VWS V14.01,2013-03-03 06:54:00,
2013-03-03 01:59:00,25.8,15.0,29.98,ENE,61,1.0,12.0,63,0.00,,,0.00,VWS V14.01,2013-03-03 06:59:00,
2013-03-03 02:04:00,25.8,15.0,29.98,East,81,2.0,12.0,63,0.00,,,0.00,VWS V14.01,2013-03-03 07:04:00,
2013-03-03 02:09:00,25.8,15.7,29.98,SSE,161,2.0,12.0,65,0.00,,,0.00,VWS V14.01,2013-03-03 07:09:00,
2013-03-03 02:14:00,25.8,15.7,29.98,SSE,161,1.0,12.0,65,0.00,,,0.00,VWS V14.01,2013-03-03 07:14:00,
2013-03-03 02:19:00,25.7,15.6,29.98,SSW,205,0.0,12.0,65,0.00,,,0.00,VWS V14.01,2013-03-03 07:19:00,
2013-03-03 02:24:00,25.7,14.5,29.98,NE,40,0.0,12.0,62,0.00,,,0.00,VWS V14.01,2013-03-03 07:24:00,
2013-03-03 02:29:00,25.7,14.5,29.98,WNW,293,3.0,12.0,62,0.00,,,0.00,VWS V14.01,2013-03-03 07:29:00,
2013-03-03 02:35:00,25.6,13.3,29.98,South,185,2.0,12.0,59,0.00,,,0.00,VWS V14.01,2013-03-03 07:35:00,
2013-03-03 02:40:00,25.4,12.7,29.98,South,171,0.0,12.0,58,0.00,,,0.00,VWS V14.01,2013-03-03 07:40:00,
2013-03-03 02:45:00,25.4,11.5,29.98,SW,227,1.0,12.0,55,0.00,,,0.00,VWS V14.01,2013-03-03 07:45:00,
2013-03-03 02:50:00,25.4,13.1,29.98,SW,227,2.0,12.0,59,0.00,,,0.00,VWS V14.01,2013-03-03 07:50:00,
2013-03-03 02:55:00,25.4,11.9,29.98,North,5,0.0,12.0,56,0.00,,,0.00,VWS V14.01,2013-03-03 07:55:00,
2013-03-03 03:00:00,25.4,11.9,29.98,South,174,3.0,12.0,56,0.00,,,0.00,VWS V14.01,2013-03-03 08:00:00,
2013-03-03 03:05:00,25.3,11.8,29.98,WSW,246,0.0,12.0,56,0.00,,,0.00,VWS V14.01,2013-03-03 08:05:00,
2013-03-03 03:10:00,25.1,11.6,29.98,WSW,238,3.0,12.0,56,0.00,,,0.00,VWS V14.01,2013-03-03 08:10:00,
2013-03-03 03:15:00,25.0,11.9,29.98,SW,236,1.0,12.0,57,0.00,,,0.00,VWS V14.01,2013-03-03 08:15:00,
2013-03-03 03:20:00,25.0,11.9,29.98,SW,215,2.0,12.0,57,0.00,,,0.00,VWS V14.01,2013-03-03 08:20:00,
2013-03-03 03:25:00,25.0,12.3,29.98,West,261,0.0,12.0,58,0.00,,,0.00,VWS V14.01,2013-03-03 08:25:00,
2013-03-03 03:30:00,25.0,12.3,29.98,ESE,106,5.0,12.0,58,0.00,,,0.00,VWS V14.01,2013-03-03 08:30:00,
2013-03-03 03:35:00,25.0,12.3,29.98,NW,311,2.0,12.0,58,0.00,,,0.00,VWS V14.01,2013-03-03 08:35:00,
2013-03-03 03:40:00,25.0,12.7,29.98,NW,306,0.0,12.0,59,0.00,,,0.00,VWS V14.01,2013-03-03 08:40:00,
2013-03-03 03:45:00,25.0,12.7,29.98,SW,216,0.0,12.0,59,0.00,,,0.00,VWS V14.01,2013-03-03 08:45:00,
2013-03-03 03:50:00,25.0,13.1,29.98,SW,216,0.0,12.0,60,0.00,,,0.00,VWS V14.01,2013-03-03 08:50:00,
2013-03-03 03:55:00,25.1,13.2,29.98,WNW,288,2.0,12.0,60,0.00,,,0.00,VWS V14.01,2013-03-03 08:55:00,
2013-03-03 04:00:00,25.1,13.9,29.98,WNW,288,0.0,12.0,62,0.00,,,0.00,VWS V14.01,2013-03-03 09:00:00,
2013-03-03 04:06:00,25.0,14.6,29.98,SW,236,3.0,12.0,64,0.00,,,0.00,VWS V14.01,2013-03-03 09:06:00,
2013-03-03 04:11:00,24.8,15.1,29.98,SW,226,3.0,12.0,66,0.00,,,0.00,VWS V14.01,2013-03-03 09:11:00,
2013-03-03 04:16:00,24.7,15.7,29.98,WNW,290,2.0,12.0,68,0.00,,,0.00,VWS V14.01,2013-03-03 09:16:00,
2013-03-03 04:21:00,24.7,16.0,29.98,SW,229,2.0,12.0,69,0.00,,,0.00,VWS V14.01,2013-03-03 09:21:00,
2013-03-03 04:26:00,24.5,16.5,29.98,NW,309,3.0,12.0,71,0.00,,,0.00,VWS V14.01,2013-03-03 09:26:00,
2013-03-03 04:31:00,24.4,16.4,29.98,SW,221,3.0,12.0,71,0.00,,,0.00,VWS V14.01,2013-03-03 09:31:00,
2013-03-03 04:36:00,24.4,17.0,29.99,WSW,239,4.0,12.0,73,0.00,,,0.00,VWS V14.01,2013-03-03 09:36:00,
2013-03-03 04:41:00,24.4,17.3,29.99,West,259,4.0,12.0,74,0.00,,,0.00,VWS V14.01,2013-03-03 09:41:00,
2013-03-03 04:46:00,24.2,17.1,29.99,SW,214,4.0,12.0,74,0.00,,,0.00,VWS V14.01,2013-03-03 09:46:00,
2013-03-03 04:52:00,24.2,17.1,29.98,WNW,300,3.0,12.0,74,0.00,,,0.00,VWS V14.01,2013-03-03 09:52:00,
2013-03-03 04:57:00,24.2,17.1,29.98,SW,225,0.0,12.0,74,0.00,,,0.00,VWS V14.01,2013-03-03 09:57:00,
2013-03-03 05:02:00,24.2,17.7,29.98,SW,234,2.0,12.0,76,0.00,,,0.00,VWS V14.01,2013-03-03 10:02:00,
2013-03-03 05:07:00,24.2,18.0,29.98,West,275,2.0,12.0,77,0.00,,,0.00,VWS V14.01,2013-03-03 10:07:00,
2013-03-03 05:12:00,24.2,18.3,29.98,West,265,1.0,12.0,78,0.00,,,0.00,VWS V14.01,2013-03-03 10:12:00,
2013-03-03 05:17:00,24.2,18.9,29.98,West,280,1.0,12.0,80,0.00,,,0.00,VWS V14.01,2013-03-03 10:17:00,
2013-03-03 05:22:00,24.2,19.2,29.99,West,281,1.0,12.0,81,0.00,,,0.00,VWS V14.01,2013-03-03 10:22:00,
2013-03-03 05:27:00,24.1,19.1,29.99,SW,214,1.0,12.0,81,0.00,,,0.00,VWS V14.01,2013-03-03 10:27:00,
2013-03-03 05:32:00,23.9,18.9,29.99,SW,236,0.0,12.0,81,0.00,,,0.00,VWS V14.01,2013-03-03 10:32:00,
2013-03-03 05:37:00,23.8,19.1,29.99,WSW,246,1.0,12.0,82,0.00,,,0.00,VWS V14.01,2013-03-03 10:37:00,
2013-03-03 05:42:00,23.8,19.4,29.99,WNW,290,1.0,12.0,83,0.00,,,0.00,VWS V14.01,2013-03-03 10:42:00,
2013-03-03 05:47:00,23.8,19.7,29.99,WNW,290,1.0,12.0,84,0.00,,,0.00,VWS V14.01,2013-03-03 10:47:00,
2013-03-03 05:53:00,23.8,19.7,29.99,West,260,0.0,12.0,84,0.00,,,0.00,VWS V14.01,2013-03-03 10:53:00,
2013-03-03 05:58:00,23.8,20.0,29.99,West,259,1.0,12.0,85,0.00,,,0.00,VWS V14.01,2013-03-03 10:58:00,
2013-03-03 06:03:00,23.8,20.0,29.99,West,259,0.0,12.0,85,0.00,,,0.00,VWS V14.01,2013-03-03 11:03:00,
2013-03-03 06:08:00,23.8,20.0,29.99,SW,224,1.0,12.0,85,0.00,,,0.00,VWS V14.01,2013-03-03 11:08:00,
2013-03-03 06:13:00,23.6,19.8,29.99,SW,234,1.0,12.0,85,0.00,,,0.00,VWS V14.01,2013-03-03 11:13:00,
2013-03-03 06:18:00,23.6,20.0,29.99,SW,234,0.0,12.0,86,0.00,,,0.00,VWS V14.01,2013-03-03 11:18:00,
2013-03-03 06:23:00,23.8,20.2,29.99,SW,234,0.0,12.0,86,0.00,,,0.00,VWS V14.01,2013-03-03 11:23:00,
2013-03-03 06:28:00,23.9,20.6,29.99,West,259,1.0,12.0,87,0.00,,,0.00,VWS V14.01,2013-03-03 11:28:00,
2013-03-03 06:33:00,23.9,20.6,30.00,West,259,2.0,12.0,87,0.00,,,0.00,VWS V14.01,2013-03-03 11:33:00,
2013-03-03 06:38:00,23.8,20.5,30.00,WSW,246,0.0,12.0,87,0.00,,,0.00,VWS V14.01,2013-03-03 11:38:00,
2013-03-03 06:44:00,23.9,20.6,30.00,West,270,2.0,12.0,87,0.00,,,0.00,VWS V14.01,2013-03-03 11:44:00,
2013-03-03 06:49:00,23.5,19.4,30.00,ENE,69,1.0,12.0,84,0.00,,,0.00,VWS V14.01,2013-03-03 11:49:00,
2013-03-03 06:54:00,23.0,19.2,30.00,North,360,0.0,12.0,85,0.00,,,0.00,VWS V14.01,2013-03-03 11:54:00,
2013-03-03 06:59:00,22.7,18.9,30.00,NNW,331,0.0,12.0,85,0.00,,,0.00,VWS V14.01,2013-03-03 11:59:00,
2013-03-03 07:04:00,22.5,18.7,30.00,NNE,14,0.0,12.0,85,0.00,,,0.00,VWS V14.01,2013-03-03 12:04:00,
2013-03-03 07:09:00,22.5,19.0,30.00,West,277,0.0,12.0,86,0.00,,,0.00,VWS V14.01,2013-03-03 12:09:00,
2013-03-03 07:14:00,22.5,18.7,30.00,WNW,295,3.0,12.0,85,0.00,,,0.00,VWS V14.01,2013-03-03 12:14:00,
2013-03-03 07:19:00,22.7,18.9,30.00,West,281,0.0,12.0,85,0.00,,,0.00,VWS V14.01,2013-03-03 12:19:00,
2013-03-03 07:24:00,22.7,18.6,30.00,East,94,0.0,12.0,84,0.00,,,0.00,VWS V14.01,2013-03-03 12:24:00,
2013-03-03 07:29:00,22.9,18.2,30.00,NNW,327,0.0,12.0,82,0.00,,,0.00,VWS V14.01,2013-03-03 12:29:00,
2013-03-03 07:34:00,23.0,18.3,30.01,NNW,327,0.0,12.0,82,0.00,,,0.00,VWS V14.01,2013-03-03 12:34:00,
2013-03-03 07:39:00,23.3,18.1,30.01,NNW,327,1.0,12.0,80,0.00,,,0.00,VWS V14.01,2013-03-03 12:39:00,
2013-03-03 07:44:00,23.5,17.7,30.01,NNW,340,2.0,12.0,78,0.00,,,0.00,VWS V14.01,2013-03-03 12:44:00,
2013-03-03 07:50:00,23.5,17.1,30.01,WSW,241,3.0,12.0,76,0.00,,,0.00,VWS V14.01,2013-03-03 12:50:00,
2013-03-03 07:55:00,23.6,16.9,30.01,WSW,241,0.0,12.0,75,0.00,,,0.00,VWS V14.01,2013-03-03 12:55:00,
2013-03-03 08:00:00,23.8,17.0,30.01,WSW,241,0.0,12.0,75,0.00,,,0.00,VWS V14.01,2013-03-03 13:00:00,
2013-03-03 08:05:00,24.1,17.3,30.01,WNW,296,2.0,12.0,75,0.00,,,0.00,VWS V14.01,2013-03-03 13:05:00,
2013-03-03 08:10:00,24.1,17.3,30.01,SW,228,0.0,12.0,75,0.00,,,0.00,VWS V14.01,2013-03-03 13:10:00,
2013-03-03 08:15:00,24.2,17.1,30.01,SW,228,0.0,12.0,74,0.00,,,0.00,VWS V14.01,2013-03-03 13:15:00,
2013-03-03 08:20:00,24.4,16.7,30.02,NE,54,2.0,12.0,72,0.00,,,0.00,VWS V14.01,2013-03-03 13:20:00,
2013-03-03 08:25:00,24.5,16.8,30.02,NNW,338,1.0,12.0,72,0.00,,,0.00,VWS V14.01,2013-03-03 13:25:00,
2013-03-03 08:30:00,24.7,17.0,30.02,West,277,0.0,12.0,72,0.00,,,0.00,VWS V14.01,2013-03-03 13:30:00,
2013-03-03 08:35:00,24.8,16.1,30.02,West,277,2.0,12.0,69,0.00,,,0.00,VWS V14.01,2013-03-03 13:35:00,
2013-03-03 08:40:00,25.0,16.6,30.02,West,277,1.0,12.0,70,0.00,,,0.00,VWS V14.01,2013-03-03 13:40:00,
2013-03-03 08:45:00,25.0,15.6,30.02,West,281,0.0,12.0,67,0.00,,,0.00,VWS V14.01,2013-03-03 13:45:00,
2013-03-03 08:50:00,25.1,16.0,30.02,NW,320,1.0,12.0,68,0.00,,,0.00,VWS V14.01,2013-03-03 13:50:00,
2013-03-03 08:55:00,25.1,15.7,30.02,WSW,242,2.0,12.0,67,0.00,,,0.00,VWS V14.01,2013-03-03 13:55:00,
2013-03-03 09:01:00,25.1,16.0,30.02,SW,232,1.0,12.0,68,0.00,,,0.00,VWS V14.01,2013-03-03 14:01:00,
2013-03-03 09:06:00,25.1,16.0,30.02,SSW,205,3.0,12.0,68,0.00,,,0.00,VWS V14.01,2013-03-03 14:06:00,
2013-03-03 09:11:00,25.0,16.3,30.02,West,265,1.0,12.0,69,0.00,,,0.00,VWS V14.01,2013-03-03 14:11:00,
2013-03-03 09:16:00,25.1,16.0,30.02,North,5,6.0,12.0,68,0.00,,,0.00,VWS V14.01,2013-03-03 14:16:00,
2013-03-03 09:21:00,25.1,15.4,30.02,NNW,341,0.0,12.0,66,0.00,,,0.00,VWS V14.01,2013-03-03 14:21:00,
2013-03-03 09:26:00,25.3,15.9,30.02,NW,315,2.0,12.0,67,0.00,,,0.00,VWS V14.01,2013-03-03 14:26:00,
2013-03-03 09:31:00,25.3,15.9,30.02,West,281,2.0,12.0,67,0.00,,,0.00,VWS V14.01,2013-03-03 14:31:00,
2013-03-03 09:36:00,25.4,16.0,30.02,North,5,0.0,12.0,67,0.00,,,0.00,VWS V14.01,2013-03-03 14:36:00,
2013-03-03 09:41:00,25.4,15.3,30.02,SW,233,2.0,12.0,65,0.00,,,0.00,VWS V14.01,2013-03-03 14:41:00,
2013-03-03 09:46:00,25.4,14.9,30.02,West,275,3.0,12.0,64,0.00,,,0.00,VWS V14.01,2013-03-03 14:46:00,
2013-03-03 09:51:00,25.6,16.5,30.02,West,261,4.0,12.0,68,0.00,,,0.00,VWS V14.01,2013-03-03 14:51:00,
2013-03-03 09:56:00,25.4,15.3,30.02,WSW,239,0.0,12.0,65,0.00,,,0.00,VWS V14.01,2013-03-03 14:56:00,
2013-03-03 10:01:00,25.7,17.0,30.02,SW,228,1.0,12.0,69,0.00,,,0.00,VWS V14.01,2013-03-03 15:01:00,
2013-03-03 10:06:00,25.6,15.8,30.02,SW,234,3.0,12.0,66,0.00,,,0.00,VWS V14.01,2013-03-03 15:06:00,
2013-03-03 10:11:00,25.6,15.5,30.02,WSW,243,1.0,12.0,65,0.00,,,0.00,VWS V14.01,2013-03-03 15:11:00,
2013-03-03 10:16:00,25.6,16.2,30.02,WSW,251,0.0,12.0,67,0.00,,,0.00,VWS V14.01,2013-03-03 15:16:00,
2013-03-03 10:21:00,25.7,15.6,30.02,WSW,245,0.0,12.0,65,0.00,,,0.00,VWS V14.01,2013-03-03 15:21:00,
2013-03-03 10:26:00,25.8,15.7,30.02,SW,236,2.0,12.0,65,0.00,,,0.00,VWS V14.01,2013-03-03 15:26:00,
2013-03-03 10:32:00,25.8,15.3,30.02,West,269,3.0,12.0,64,0.00,,,0.00,VWS V14.01,2013-03-03 15:32:00,
2013-03-03 10:37:00,26.0,15.1,30.01,WSW,248,0.0,12.0,63,0.00,,,0.00,VWS V14.01,2013-03-03 15:37:00,
2013-03-03 10:42:00,26.6,16.8,30.01,West,272,2.0,12.0,66,0.00,,,0.00,VWS V14.01,2013-03-03 15:42:00,
2013-03-03 10:47:00,27.0,16.8,30.01,WSW,251,4.0,12.0,65,0.00,,,0.00,VWS V14.01,2013-03-03 15:47:00,
2013-03-03 10:52:00,27.0,14.6,30.01,WSW,246,2.0,12.0,59,0.00,,,0.00,VWS V14.01,2013-03-03 15:52:00,
2013-03-03 10:57:00,26.9,15.6,30.01,West,274,3.0,12.0,62,0.00,,,0.00,VWS V14.01,2013-03-03 15:57:00,
2013-03-03 11:02:00,26.6,15.4,30.01,SW,217,2.0,12.0,62,0.00,,,0.00,VWS V14.01,2013-03-03 16:02:00,
2013-03-03 11:07:00,26.7,15.8,30.01,WSW,242,1.0,12.0,63,0.00,,,0.00,VWS V14.01,2013-03-03 16:07:00,
2013-03-03 11:12:00,27.0,16.8,30.01,WNW,294,3.0,12.0,65,0.00,,,0.00,VWS V14.01,2013-03-03 16:12:00,
2013-03-03 11:17:00,27.0,16.1,30.01,West,280,2.0,12.0,63,0.00,,,0.00,VWS V14.01,2013-03-03 16:17:00,
2013-03-03 11:22:00,27.2,16.6,30.01,West,277,2.0,12.0,64,0.00,,,0.00,VWS V14.01,2013-03-03 16:22:00,
2013-03-03 11:27:00,27.2,15.6,30.01,West,271,2.0,12.0,61,0.00,,,0.00,VWS V14.01,2013-03-03 16:27:00,
2013-03-03 11:32:00,27.6,15.9,30.01,WNW,296,4.0,12.0,61,0.00,,,0.00,VWS V14.01,2013-03-03 16:32:00,
2013-03-03 11:37:00,27.8,16.1,30.01,WSW,248,1.0,12.0,61,0.00,,,0.00,VWS V14.01,2013-03-03 16:37:00,
2013-03-03 11:42:00,27.9,16.6,30.01,WNW,300,3.0,12.0,62,0.00,,,0.00,VWS V14.01,2013-03-03 16:42:00,
2013-03-03 11:48:00,28.1,16.4,30.01,WSW,244,3.0,12.0,61,0.00,,,0.00,VWS V14.01,2013-03-03 16:48:00,
2013-03-03 11:53:00,27.8,15.7,30.01,SW,233,0.0,12.0,60,0.00,,,0.00,VWS V14.01,2013-03-03 16:53:00,
2013-03-03 11:58:00,27.9,16.2,30.01,WNW,284,6.0,12.0,61,0.00,,,0.00,VWS V14.01,2013-03-03 16:58:00,
2013-03-03 12:03:00,28.1,17.1,30.01,SSW,207,2.0,12.0,63,0.00,,,0.00,VWS V14.01,2013-03-03 17:03:00,
2013-03-03 12:08:00,27.8,16.5,30.01,SW,232,1.0,12.0,62,0.00,,,0.00,VWS V14.01,2013-03-03 17:08:00,
2013-03-03 12:13:00,27.8,16.5,30.01,NW,323,1.0,12.0,62,0.00,,,0.00,VWS V14.01,2013-03-03 17:13:00,
2013-03-03 12:18:00,28.1,17.5,30.00,WSW,237,3.0,12.0,64,0.00,,,0.00,VWS V14.01,2013-03-03 17:18:00,
2013-03-03 12:23:00,28.4,17.1,30.00,North,355,5.0,12.0,62,0.00,,,0.00,VWS V14.01,2013-03-03 17:23:00,
2013-03-03 12:28:00,28.5,16.8,30.00,NW,320,0.0,12.0,61,0.00,,,0.00,VWS V14.01,2013-03-03 17:28:00,
2013-03-03 12:33:00,28.8,17.8,30.00,WSW,241,7.0,12.0,63,0.00,,,0.00,VWS V14.01,2013-03-03 17:33:00,
2013-03-03 12:38:00,28.7,17.3,30.00,West,266,2.0,12.0,62,0.00,,,0.00,VWS V14.01,2013-03-03 17:38:00,
2013-03-03 12:43:00,28.2,17.6,30.00,WSW,248,1.0,12.0,64,0.00,,,0.00,VWS V14.01,2013-03-03 17:43:00,
2013-03-03 12:48:00,27.8,16.9,30.00,SW,219,1.0,12.0,63,0.00,,,0.00,VWS V14.01,2013-03-03 17:48:00,
2013-03-03 12:53:00,27.6,17.0,30.00,WNW,298,4.0,12.0,64,0.00,,,0.00,VWS V14.01,2013-03-03 17:53:00,
2013-03-03 12:58:00,27.9,17.7,30.00,West,279,4.0,12.0,65,0.00,,,0.00,VWS V14.01,2013-03-03 17:58:00,
2013-03-03 13:04:00,28.2,16.9,29.99,SW,234,0.0,12.0,62,0.00,,,0.00,VWS V14.01,2013-03-03 18:04:00,
2013-03-03 13:09:00,29.0,16.9,29.99,SSW,202,3.0,12.0,60,0.00,,,0.00,VWS V14.01,2013-03-03 18:09:00,
2013-03-03 13:14:00,29.4,17.2,29.99,NW,323,4.0,12.0,60,0.00,,,0.00,VWS V14.01,2013-03-03 18:14:00,
2013-03-03 13:19:00,29.8,16.4,29.99,WNW,289,2.0,12.0,57,0.00,,,0.00,VWS V14.01,2013-03-03 18:19:00,
2013-03-03 13:24:00,29.7,16.4,29.99,WNW,292,1.0,12.0,57,0.00,,,0.00,VWS V14.01,2013-03-03 18:24:00,
2013-03-03 13:29:00,29.5,16.6,29.99,WNW,282,6.0,12.0,58,0.00,,,0.00,VWS V14.01,2013-03-03 18:29:00,
2013-03-03 13:34:00,29.0,16.9,29.99,WSW,247,3.0,12.0,60,0.00,,,0.00,VWS V14.01,2013-03-03 18:34:00,
2013-03-03 13:39:00,28.8,17.4,29.99,WNW,286,3.0,12.0,62,0.00,,,0.00,VWS V14.01,2013-03-03 18:39:00,
2013-03-03 13:44:00,28.7,16.6,29.99,SW,232,2.0,12.0,60,0.00,,,0.00,VWS V14.01,2013-03-03 18:44:00,
2013-03-03 13:49:00,28.8,17.4,29.98,WSW,254,3.0,12.0,62,0.00,,,0.00,VWS V14.01,2013-03-03 18:49:00,
2013-03-03 13:54:00,28.8,17.8,29.98,West,272,3.0,12.0,63,0.00,,,0.00,VWS V14.01,2013-03-03 18:54:00,
2013-03-03 14:00:00,28.8,18.2,29.98,WNW,293,4.0,12.0,64,0.00,,,0.00,VWS V14.01,2013-03-03 19:00:00,
2013-03-03 14:05:00,29.3,18.3,29.98,SSW,207,2.0,12.0,63,0.00,,,0.00,VWS V14.01,2013-03-03 19:05:00,
2013-03-03 14:10:00,29.0,17.2,29.98,SSW,198,0.0,12.0,61,0.00,,,0.00,VWS V14.01,2013-03-03 19:10:00,
2013-03-03 14:15:00,29.4,17.6,29.98,WSW,246,2.0,12.0,61,0.00,,,0.00,VWS V14.01,2013-03-03 19:15:00,
2013-03-03 14:20:00,29.8,16.8,29.98,WNW,287,1.0,12.0,58,0.00,,,0.00,VWS V14.01,2013-03-03 19:20:00,
2013-03-03 14:25:00,30.3,17.3,29.98,West,281,3.0,12.0,58,0.00,,,0.00,VWS V14.01,2013-03-03 19:25:00,
2013-03-03 14:30:00,30.4,17.4,29.98,West,267,5.0,12.0,58,0.00,,,0.00,VWS V14.01,2013-03-03 19:30:00,
2013-03-03 14:35:00,29.3,17.9,29.98,WSW,238,4.0,12.0,62,0.00,,,0.00,VWS V14.01,2013-03-03 19:35:00,
2013-03-03 14:40:00,28.7,17.7,29.98,West,267,0.0,12.0,63,0.00,,,0.00,VWS V14.01,2013-03-03 19:40:00,
2013-03-03 14:45:00,28.4,17.1,29.98,SW,221,5.0,12.0,62,0.00,,,0.00,VWS V14.01,2013-03-03 19:45:00,
2013-03-03 14:50:00,28.2,16.9,29.99,NW,317,1.0,12.0,62,0.00,,,0.00,VWS V14.01,2013-03-03 19:50:00,
2013-03-03 14:55:00,28.2,16.9,29.99,SW,214,3.0,12.0,62,0.00,,,0.00,VWS V14.01,2013-03-03 19:55:00,
2013-03-03 15:00:00,28.7,17.3,29.99,WSW,237,0.0,12.0,62,0.00,,,0.00,VWS V14.01,2013-03-03 20:00:00,
2013-03-03 15:05:00,29.7,17.5,29.98,SSW,199,1.0,12.0,60,0.00,,,0.00,VWS V14.01,2013-03-03 20:05:00,
2013-03-03 15:11:00,30.0,17.4,29.98,West,273,6.0,12.0,59,0.00,,,0.00,VWS V14.01,2013-03-03 20:11:00,
2013-03-03 15:16:00,30.0,17.4,29.98,NW,314,3.0,12.0,59,0.00,,,0.00,VWS V14.01,2013-03-03 20:16:00,
2013-03-03 15:21:00,29.5,17.0,29.99,NW,315,3.0,12.0,59,0.00,,,0.00,VWS V14.01,2013-03-03 20:21:00,
2013-03-03 15:26:00,29.1,17.3,29.99,South,191,2.0,12.0,61,0.00,,,0.00,VWS V14.01,2013-03-03 20:26:00,
2013-03-03 15:31:00,29.0,17.2,29.99,SSW,208,5.0,12.0,61,0.00,,,0.00,VWS V14.01,2013-03-03 20:31:00,
2013-03-03 15:36:00,28.8,17.4,29.99,WNW,286,4.0,12.0,62,0.00,,,0.00,VWS V14.01,2013-03-03 20:36:00,
2013-03-03 15:41:00,29.0,18.0,29.99,SSW,208,2.0,12.0,63,0.00,,,0.00,VWS V14.01,2013-03-03 20:41:00,
2013-03-03 15:46:00,28.8,18.2,29.99,WNW,301,8.0,12.0,64,0.00,,,0.00,VWS V14.01,2013-03-03 20:46:00,
2013-03-03 15:51:00,29.1,17.3,29.99,WNW,301,3.0,12.0,61,0.00,,,0.00,VWS V14.01,2013-03-03 20:51:00,
2013-03-03 15:56:00,29.3,17.5,29.99,South,188,3.0,12.0,61,0.00,,,0.00,VWS V14.01,2013-03-03 20:56:00,
2013-03-03 16:01:00,29.4,18.0,29.99,SSW,203,3.0,12.0,62,0.00,,,0.00,VWS V14.01,2013-03-03 21:01:00,
2013-03-03 16:07:00,29.1,17.3,29.99,WSW,257,4.0,12.0,61,0.00,,,0.00,VWS V14.01,2013-03-03 21:07:00,
2013-03-03 16:12:00,28.8,16.7,29.99,West,261,4.0,12.0,60,0.00,,,0.00,VWS V14.01,2013-03-03 21:12:00,
2013-03-03 16:17:00,29.1,16.6,29.99,SW,221,5.0,12.0,59,0.00,,,0.00,VWS V14.01,2013-03-03 21:17:00,
2013-03-03 16:22:00,29.1,17.0,30.00,SW,217,4.0,12.0,60,0.00,,,0.00,VWS V14.01,2013-03-03 21:22:00,
2013-03-03 16:27:00,29.1,17.0,30.00,WSW,242,1.0,12.0,60,0.00,,,0.00,VWS V14.01,2013-03-03 21:27:00,
2013-03-03 16:32:00,29.0,17.6,30.00,West,270,3.0,12.0,62,0.00,,,0.00,VWS V14.01,2013-03-03 21:32:00,
2013-03-03 16:37:00,29.0,16.9,30.00,SSW,202,2.0,12.0,60,0.00,,,0.00,VWS V14.01,2013-03-03 21:37:00,
2013-03-03 16:42:00,29.0,16.5,30.00,West,270,4.0,12.0,59,0.00,,,0.00,VWS V14.01,2013-03-03 21:42:00,
2013-03-03 16:47:00,29.0,16.1,30.00,WSW,242,2.0,12.0,58,0.00,,,0.00,VWS V14.01,2013-03-03 21:47:00,
2013-03-03 16:52:00,29.1,16.2,30.00,NW,304,1.0,12.0,58,0.00,,,0.00,VWS V14.01,2013-03-03 21:52:00,
2013-03-03 16:57:00,29.1,16.2,30.00,SW,232,3.0,12.0,58,0.00,,,0.00,VWS V14.01,2013-03-03 21:57:00,
2013-03-03 17:03:00,28.8,15.5,30.00,WSW,237,2.0,12.0,57,0.00,,,0.00,VWS V14.01,2013-03-03 22:03:00,
2013-03-03 17:08:00,28.8,15.9,30.00,WSW,254,1.0,12.0,58,0.00,,,0.00,VWS V14.01,2013-03-03 22:08:00,
2013-03-03 17:13:00,29.0,16.1,30.00,WSW,240,2.0,12.0,58,0.00,,,0.00,VWS V14.01,2013-03-03 22:13:00,
2013-03-03 17:18:00,29.1,16.2,30.01,WSW,244,3.0,12.0,58,0.00,,,0.00,VWS V14.01,2013-03-03 22:18:00,
2013-03-03 17:23:00,29.0,15.3,30.01,SSW,199,1.0,12.0,56,0.00,,,0.00,VWS V14.01,2013-03-03 22:23:00,
2013-03-03 17:28:00,28.8,14.7,30.01,WSW,253,2.0,12.0,55,0.00,,,0.00,VWS V14.01,2013-03-03 22:28:00,
2013-03-03 17:33:00,28.8,14.7,30.01,WSW,246,2.0,12.0,55,0.00,,,0.00,VWS V14.01,2013-03-03 22:33:00,
2013-03-03 17:38:00,28.7,14.6,30.01,SSW,213,4.0,12.0,55,0.00,,,0.00,VWS V14.01,2013-03-03 22:38:00,
2013-03-03 17:43:00,28.7,14.6,30.01,West,263,1.0,12.0,55,0.00,,,0.00,VWS V14.01,2013-03-03 22:43:00,
2013-03-03 17:48:00,28.7,14.2,30.01,SSW,206,3.0,12.0,54,0.00,,,0.00,VWS V14.01,2013-03-03 22:48:00,
2013-03-03 17:53:00,28.5,14.0,30.01,SSE,160,0.0,12.0,54,0.00,,,0.00,VWS V14.01,2013-03-03 22:53:00,
2013-03-03 17:58:00,28.7,15.0,30.01,West,281,2.0,12.0,56,0.00,,,0.00,VWS V14.01,2013-03-03 22:58:00,
2013-03-03 18:03:00,28.8,14.7,30.02,West,267,4.0,12.0,55,0.00,,,0.00,VWS V14.01,2013-03-03 23:03:00,
2013-03-03 18:09:00,28.7,14.2,30.02,SW,227,1.0,12.0,54,0.00,,,0.00,VWS V14.01,2013-03-03 23:09:00,
2013-03-03 18:14:00,28.5,14.4,30.02,WNW,287,4.0,12.0,55,0.00,,,0.00,VWS V14.01,2013-03-03 23:14:00,
2013-03-03 18:19:00,28.5,14.0,30.02,West,269,4.0,12.0,54,0.00,,,0.00,VWS V14.01,2013-03-03 23:19:00,
2013-03-03 18:24:00,28.5,14.4,30.02,SSW,206,3.0,12.0,55,0.00,,,0.00,VWS V14.01,2013-03-03 23:24:00,
2013-03-03 18:29:00,28.4,14.3,30.02,SW,228,1.0,12.0,55,0.00,,,0.00,VWS V14.01,2013-03-03 23:29:00,
2013-03-03 18:34:00,28.2,14.1,30.02,SSW,200,1.0,12.0,55,0.00,,,0.00,VWS V14.01,2013-03-03 23:34:00,
2013-03-03 18:39:00,28.1,13.6,30.02,WSW,238,2.0,12.0,54,0.00,,,0.00,VWS V14.01,2013-03-03 23:39:00,
2013-03-03 18:44:00,28.1,14.0,30.02,West,276,2.0,12.0,55,0.00,,,0.00,VWS V14.01,2013-03-03 23:44:00,
2013-03-03 18:49:00,27.9,14.6,30.03,WSW,258,0.0,12.0,57,0.00,,,0.00,VWS V14.01,2013-03-03 23:49:00,
2013-03-03 18:54:00,28.1,14.4,30.03,SW,227,2.0,12.0,56,0.00,,,0.00,VWS V14.01,2013-03-03 23:54:00,
2013-03-03 18:59:00,27.9,14.6,30.03,West,269,0.0,12.0,57,0.00,,,0.00,VWS V14.01,2013-03-03 23:59:00,
2013-03-03 19:04:00,27.9,14.2,30.03,SW,232,3.0,12.0,56,0.00,,,0.00,VWS V14.01,2013-03-04 00:04:00,
2013-03-03 19:10:00,27.9,14.6,30.03,West,272,0.0,12.0,57,0.00,,,0.00,VWS V14.01,2013-03-04 00:10:00,
2013-03-03 19:15:00,28.1,15.2,30.03,SSW,209,4.0,12.0,58,0.00,,,0.00,VWS V14.01,2013-03-04 00:15:00,
2013-03-03 19:20:00,27.9,15.1,30.04,SSW,194,1.0,12.0,58,0.00,,,0.00,VWS V14.01,2013-03-04 00:20:00,
2013-03-03 19:25:00,27.9,15.1,30.04,WSW,242,2.0,12.0,58,0.00,,,0.00,VWS V14.01,2013-03-04 00:25:00,
2013-03-03 19:30:00,27.8,15.0,30.04,SW,234,2.0,12.0,58,0.00,,,0.00,VWS V14.01,2013-03-04 00:30:00,
2013-03-03 19:35:00,27.8,15.0,30.05,WSW,245,2.0,12.0,58,0.00,,,0.00,VWS V14.01,2013-03-04 00:35:00,
2013-03-03 19:40:00,27.8,15.0,30.05,South,180,3.0,12.0,58,0.00,,,0.00,VWS V14.01,2013-03-04 00:40:00,
2013-03-03 19:45:00,27.6,14.4,30.05,WSW,241,0.0,12.0,57,0.00,,,0.00,VWS V14.01,2013-03-04 00:45:00,
2013-03-03 19:50:00,27.8,15.0,30.05,West,281,1.0,12.0,58,0.00,,,0.00,VWS V14.01,2013-03-04 00:50:00,
2013-03-03 19:55:00,27.8,15.4,30.05,SW,220,1.0,12.0,59,0.00,,,0.00,VWS V14.01,2013-03-04 00:55:00,
2013-03-03 20:00:00,27.6,15.2,30.05,NW,308,3.0,12.0,59,0.00,,,0.00,VWS V14.01,2013-03-04 01:00:00,
2013-03-03 20:06:00,27.6,15.2,30.05,SSW,211,5.0,12.0,59,0.00,,,0.00,VWS V14.01,2013-03-04 01:06:00,
2013-03-03 20:11:00,27.5,15.1,30.05,SW,230,3.0,12.0,59,0.00,,,0.00,VWS V14.01,2013-03-04 01:11:00,
2013-03-03 20:16:00,27.5,15.1,30.05,West,266,5.0,12.0,59,0.00,,,0.00,VWS V14.01,2013-03-04 01:16:00,
2013-03-03 20:21:00,27.5,15.1,30.05,SSW,194,2.0,12.0,59,0.00,,,0.00,VWS V14.01,2013-03-04 01:21:00,
2013-03-03 20:26:00,27.5,15.1,30.05,SW,217,3.0,12.0,59,0.00,,,0.00,VWS V14.01,2013-03-04 01:26:00,
2013-03-03 20:31:00,27.5,15.4,30.05,SW,221,3.0,12.0,60,0.00,,,0.00,VWS V14.01,2013-03-04 01:31:00,
2013-03-03 20:36:00,27.5,15.4,30.05,WSW,254,4.0,12.0,60,0.00,,,0.00,VWS V14.01,2013-03-04 01:36:00,
2013-03-03 20:41:00,27.3,15.3,30.05,SW,231,5.0,12.0,60,0.00,,,0.00,VWS V14.01,2013-03-04 01:41:00,
2013-03-03 20:46:00,27.3,15.6,30.05,WNW,288,2.0,12.0,61,0.00,,,0.00,VWS V14.01,2013-03-04 01:46:00,
2013-03-03 20:51:00,27.3,16.0,30.05,SSW,207,3.0,12.0,62,0.00,,,0.00,VWS V14.01,2013-03-04 01:51:00,
2013-03-03 20:56:00,27.2,15.9,30.05,West,269,4.0,12.0,62,0.00,,,0.00,VWS V14.01,2013-03-04 01:56:00,
2013-03-03 21:02:00,27.2,16.3,30.05,WSW,248,2.0,12.0,63,0.00,,,0.00,VWS V14.01,2013-03-04 02:02:00,
2013-03-03 21:07:00,27.2,16.3,30.06,SW,236,2.0,12.0,63,0.00,,,0.00,VWS V14.01,2013-03-04 02:07:00,
2013-03-03 21:12:00,27.2,16.3,30.06,WSW,249,2.0,12.0,63,0.00,,,0.00,VWS V14.01,2013-03-04 02:12:00,
2013-03-03 21:17:00,27.2,15.2,30.06,WSW,246,1.0,12.0,60,0.00,,,0.00,VWS V14.01,2013-03-04 02:17:00,
2013-03-03 21:22:00,27.2,14.8,30.06,West,270,4.0,12.0,59,0.00,,,0.00,VWS V14.01,2013-03-04 02:22:00,
2013-03-03 21:27:00,27.3,14.5,30.06,SW,235,1.0,12.0,58,0.00,,,0.00,VWS V14.01,2013-03-04 02:27:00,
2013-03-03 21:32:00,27.3,14.5,30.06,West,268,2.0,12.0,58,0.00,,,0.00,VWS V14.01,2013-03-04 02:32:00,
2013-03-03 21:37:00,27.3,14.1,30.06,SSW,197,2.0,12.0,57,0.00,,,0.00,VWS V14.01,2013-03-04 02:37:00,
2013-03-03 21:43:00,27.3,14.1,30.06,WSW,253,1.0,12.0,57,0.00,,,0.00,VWS V14.01,2013-03-04 02:43:00,
2013-03-03 21:48:00,27.3,13.7,30.06,West,261,1.0,12.0,56,0.00,,,0.00,VWS V14.01,2013-03-04 02:48:00,
2013-03-03 21:53:00,27.3,14.5,30.06,NNW,347,4.0,12.0,58,0.00,,,0.00,VWS V14.01,2013-03-04 02:53:00,
2013-03-03 21:58:00,27.3,14.1,30.06,SW,226,0.0,12.0,57,0.00,,,0.00,VWS V14.01,2013-03-04 02:58:00,
2013-03-03 22:03:00,27.3,13.7,30.06,West,279,3.0,12.0,56,0.00,,,0.00,VWS V14.01,2013-03-04 03:03:00,
2013-03-03 22:08:00,27.3,14.5,30.06,WSW,255,1.0,12.0,58,0.00,,,0.00,VWS V14.01,2013-03-04 03:08:00,
2013-03-03 22:13:00,27.3,14.9,30.06,West,259,0.0,12.0,59,0.00,,,0.00,VWS V14.01,2013-03-04 03:13:00,
2013-03-03 22:18:00,27.5,14.3,30.06,North,360,1.0,12.0,57,0.00,,,0.00,VWS V14.01,2013-03-04 03:18:00,
2013-03-03 22:23:00,27.5,14.7,30.06,NW,314,1.0,12.0,58,0.00,,,0.00,VWS V14.01,2013-03-04 03:23:00,
2013-03-03 22:28:00,27.5,14.3,30.06,NW,325,1.0,12.0,57,0.00,,,0.00,VWS V14.01,2013-03-04 03:28:00,
2013-03-03 22:34:00,27.5,13.9,30.06,SSW,201,2.0,12.0,56,0.00,,,0.00,VWS V14.01,2013-03-04 03:34:00,
2013-03-03 22:39:00,27.5,13.9,30.06,SW,234,2.0,12.0,56,0.00,,,0.00,VWS V14.01,2013-03-04 03:39:00,
2013-03-03 22:44:00,27.5,14.3,30.06,West,272,3.0,12.0,57,0.00,,,0.00,VWS V14.01,2013-03-04 03:44:00,
2013-03-03 22:49:00,27.6,14.8,30.06,West,272,0.0,12.0,58,0.00,,,0.00,VWS V14.01,2013-03-04 03:49:00,
2013-03-03 22:54:00,27.6,14.4,30.06,West,273,2.0,12.0,57,0.00,,,0.00,VWS V14.01,2013-03-04 03:54:00,
2013-03-03 22:59:00,27.6,14.0,30.06,West,274,0.0,12.0,56,0.00,,,0.00,VWS V14.01,2013-03-04 03:59:00,
2013-03-03 23:04:00,27.6,13.6,30.06,West,265,3.0,12.0,55,0.00,,,0.00,VWS V14.01,2013-03-04 04:04:00,
2013-03-03 23:09:00,27.6,14.0,30.06,SW,236,0.0,12.0,56,0.00,,,0.00,VWS V14.01,2013-03-04 04:09:00,
2013-03-03 23:14:00,27.6,13.6,30.06,SW,236,0.0,12.0,55,0.00,,,0.00,VWS V14.01,2013-03-04 04:14:00,
2013-03-03 23:20:00,27.6,14.0,30.04,SW,236,0.0,12.0,56,0.00,,,0.00,VWS V14.01,2013-03-04 04:20:00,
2013-03-03 23:25:00,27.5,13.9,30.04,SW,236,0.0,12.0,56,0.00,,,0.00,VWS V14.01,2013-03-04 04:25:00,
2013-03-03 23:30:00,27.6,14.4,30.04,WNW,300,0.0,12.0,57,0.00,,,0.00,VWS V14.01,2013-03-04 04:30:00,
2013-03-03 23:35:00,27.6,14.4,30.05,WNW,300,0.0,12.0,57,0.00,,,0.00,VWS V14.01,2013-03-04 04:35:00,
2013-03-03 23:40:00,27.5,13.9,30.05,WNW,300,0.0,12.0,56,0.00,,,0.00,VWS V14.01,2013-03-04 04:40:00,
2013-03-03 23:45:00,27.6,14.0,30.05,West,271,0.0,12.0,56,0.00,,,0.00,VWS V14.01,2013-03-04 04:45:00,
2013-03-03 23:50:00,27.6,14.4,30.05,West,271,0.0,12.0,57,0.00,,,0.00,VWS V14.01,2013-03-04 04:50:00,
2013-03-03 23:55:00,27.6,14.8,30.05,West,265,0.0,12.0,58,0.00,,,0.00,VWS V14.01,2013-03-04 04:55:00,